Flag for Costa Rica

Past Weather in Alajuela, Costa Rica — Yesterday and Last 2 Weeks

Now
81 °F

Passing clouds.


Feels Like: 82 °F
Forecast: 80 / 64 °F
Wind: 10 mph from Southeast

Location: Juan Santamaria
Current Time: Sep 28, 2020 at 10:49:58 am
Latest Report: Sep 28, 2020 at 10:00 am
Visibility: N/A
Pressure29.98 "Hg(26.89 "Hg at 955m altitude)
Humidity: 54%
Dew Point: 63 °F
Location of AlajuelaLocation

Past Weather in Alajuela — Graph

°F

Alajuela Temperature Yesterday

Maximum temperature yesterday: 81 °F (at 11:00 am)
Minimum temperature yesterday: 66 °F (at 12:00 am)
Average temperature yesterday: 71 °F

High & Low Weather Summary for the Past Weeks

 TemperatureHumidityPressure
High84 °F (Sep 16, 1:00 pm)100% (Sep 13, 5:00 pm)30.13 "Hg (Sep 13, 5:00 pm)
Low64 °F (Sep 18, 6:00 am)55% (Sep 16, 11:00 am)29.90 "Hg (Sep 28, 4:00 am)
Average71 °F89%30.02 "Hg
* Reported Sep 13 9:00 am — Sep 28 9:00 am, Alajuela. Weather by CustomWeather, © 2020

Note: Actual official high and low records may vary slightly from our data, if they occured in-between our weather recording intervals... More about our weather records

Alajuela Weather History for the Previous 24 Hours

Scroll right to see more
 ConditionsComfort  
Time TempWeatherWind HumidityBarometerVisibility
9:00 am
Mon, Sep 28
77 °FPassing clouds.12 mph61%29.98 "HgN/A
8:00 am75 °FPassing clouds.12 mph65%29.97 "HgN/A
7:00 am72 °FSunny.13 mph69%29.96 "Hg10 mi
6:00 am68 °FPassing clouds.7 mph73%29.94 "HgN/A
5:00 am66 °FClear.9 mph78%29.92 "Hg10 mi
4:00 am66 °FClear.8 mph78%29.90 "Hg10 mi
2:00 am64 °FClear.7 mph94%29.91 "Hg10 mi
1:00 am66 °FClear.5 mph88%29.93 "Hg10 mi
12:00 am66 °FClear.5 mph94%29.98 "Hg10 mi
11:00 pm
Sun, Sep 27
66 °FPassing clouds.5 mph94%30.00 "HgN/A
10:00 pm68 °FClear.1 mph94%30.02 "Hg10 mi
9:00 pm68 °FClear.2 mph94%30.01 "Hg10 mi
8:00 pm66 °FLight rain. Clear.2 mph94%30.01 "HgN/A
7:00 pm68 °FLight rain. Clear.5 mph94%29.98 "HgN/A
6:00 pm70 °FLight rain. Light fog.7 mph83%29.94 "HgN/A
5:00 pm70 °FLight rain. Clear.5 mph94%29.93 "HgN/A
4:00 pm68 °FLight rain. Clear.3 mph94%29.94 "HgN/A
3:00 pm68 °FThundershowers. Broken clouds.5 mph94%29.93 "HgN/A
2:35 pm68 °FThunderstorms. Broken clouds.1 mph94%29.93 "HgN/A
2:00 pm70 °FThunderstorms. Broken clouds.15 mph94%29.94 "Hg2 mi
1:18 pm79 °FThunderstorms. Broken clouds.12 mph74%29.94 "HgN/A
1:00 pm81 °FThundershowers. Partly sunny.12 mph74%29.96 "HgN/A
12:00 pm81 °FBroken clouds.9 mph70%30.00 "HgN/A
11:00 am81 °FScattered clouds.8 mph70%30.03 "HgN/A
10:00 am77 °FPartly sunny.5 mph69%30.06 "HgN/A
Weather by CustomWeather, © 2020

See weather overview